Location: Erfurt
(50.9688°N, 11.0193°E)
Time: 11:07:53
(UTC+02:00)

ISS - Pass Details

Date: 07 January 2018
Orbit: 402 x 408 km, 51.6° (Epoch: 22 July)

Event Time Altitude Azimuth Distance (km) Brightness Sun altitude
Exits shadow 04:37:41 - 78° (ENE) 1,614 0.1 -33.5°
Enters shadow 05:34:34 -67° 267° (W) 12,150 3.6 -24.6°
Maximum altitude 06:10:46 79° 4° (N) 430 -3.8 -18.9°
